Burlington, NC

3:16 PM EST on January 21, 2017 (GMT -0500)
Burlington

Weather History for KBUY - June, 2013

Change the Weather History Date:

Monday, June 3, 2013

  Actual Average Record
Temperature  
Mean Temperature 74 °F -  
Max Temperature 82 °F 85 °F 96 °F (1989)
Min Temperature 66 °F 61 °F 48 °F (1966)
Cooling Degree Days 9    
Growing Degree Days 24 (Base 50)    
Moisture  
Dew Point 68 °F    
Average Humidity 89    
Maximum Humidity 100    
Minimum Humidity 60    
Precipitation  
Precipitation 0.76 in - - ()
Sea Level Pressure  
Sea Level Pressure 29.91 in    
Wind  
Wind Speed 5 mph (SSW)    
Max Wind Speed 9 mph    
Max Gust Speed 22 mph    
Visibility 8 miles    
Events Rain    
Averages and records for this station are not official NWS values.
T = Trace of Precipitation, MM = Missing Value Source: NWS Daily Summary

Daily Weather History Graph

Daily Weather History Graph

Search for Another Location

Airport or City:

Trip Planner

Search our weather history database for the weather conditions in past years. The results will help you decide how hot, cold, wet, or windy it might be!

Date:

Astronomy

Jun. 03, 2013 Rise Set
Actual Time 6:01 AM EDT 8:30 PM EDT
Civil Twilight 5:31 AM EDT 9:00 PM EDT
Nautical Twilight 4:55 AM EDT 9:37 PM EDT
Astronomical Twilight 4:14 AM EDT 10:18 PM EDT
Moon 2:50 AM EDT (6/3) 4:06 PM EDT (6/3)
Length of Visible Light 15h 28m
Length of Day
14h 29m
Waning Crescent, 22% of the Moon is Illuminated
Jun 3
Waning Crescent
Jun 8
New
Jun 16
First Quarter
Jun 23
Full
Jun 30
Last Quarter

Hourly Weather History & Observations

Time (EDT) Temp. Heat Index Dew Point Humidity Pressure Visibility Wind Dir Wind Speed Gust Speed Precip Events Conditions
12:54 AM 71.1 °F - 69.1 °F 93% 29.92 in 5.0 mi SE 5.8 mph - 0.15 in Rain Rain
1:01 AM 71.6 °F - 69.8 °F 94% 29.93 in 5.0 mi SSE 8.1 mph - 0.01 in Rain Rain
1:11 AM 71.6 °F - 69.8 °F 94% 29.93 in 7.0 mi SSE 5.8 mph - 0.02 in Rain Light Rain
1:31 AM 71.6 °F - 69.8 °F 94% 29.93 in 10.0 mi SSE 6.9 mph - 0.03 in Rain Light Rain
1:41 AM 71.6 °F - 69.8 °F 94% 29.93 in 10.0 mi SSE 5.8 mph - 0.03 in Rain Light Rain
1:54 AM 71.1 °F - 69.1 °F 93% 29.91 in 10.0 mi South 6.9 mph 18.4 mph 0.03 in Rain Light Rain
1:59 AM 71.6 °F - 68.0 °F 88% 29.93 in 10.0 mi South 6.9 mph - 0.00 in Rain Light Rain
2:54 AM 69.1 °F - 66.9 °F 93% 29.90 in 10.0 mi SSW 5.8 mph - 0.00 in   Overcast
3:54 AM 69.1 °F - 66.9 °F 93% 29.89 in 10.0 mi SW 3.5 mph - 0.01 in   Overcast
4:38 AM 69.8 °F - 66.2 °F 88% 29.91 in 4.0 mi WSW 6.9 mph - 0.05 in Rain Light Rain
4:41 AM 69.8 °F - 66.2 °F 88% 29.91 in 1.8 mi SW 4.6 mph - 0.10 in Rain Heavy Rain
4:50 AM 69.8 °F - 66.2 °F 88% 29.91 in 3.0 mi SSW 3.5 mph - 0.11 in Rain Light Rain
4:54 AM 69.1 °F - 66.9 °F 93% 29.89 in 8.0 mi SSW 5.8 mph - 0.12 in Rain Light Rain
5:24 AM 69.8 °F - 68.0 °F 94% 29.91 in 7.0 mi SW 3.5 mph - 0.00 in Rain Light Rain
5:47 AM 69.8 °F - 68.0 °F 94% 29.91 in 3.0 mi Calm Calm - 0.06 in Rain Rain
5:54 AM 69.1 °F - 68.0 °F 96% 29.88 in 4.0 mi Calm Calm - 0.07 in Rain Rain
6:02 AM 69.8 °F - 68.0 °F 94% 29.90 in 10.0 mi Calm Calm - 0.01 in Rain Light Rain
6:29 AM 69.8 °F - 68.0 °F 94% 29.91 in 4.0 mi Calm Calm - 0.03 in Rain Rain
6:48 AM 69.8 °F - 68.0 °F 94% 29.91 in 5.0 mi Calm Calm - 0.06 in Rain Light Rain
6:54 AM 69.1 °F - 68.0 °F 96% 29.89 in 7.0 mi Calm Calm - 0.07 in Rain Light Rain
7:30 AM 69.8 °F - 68.0 °F 94% 29.91 in 10.0 mi Calm Calm - 0.02 in Rain Light Rain
7:54 AM 70.0 °F - 68.0 °F 93% 29.90 in 10.0 mi SW 4.6 mph - 0.02 in   Overcast
8:13 AM 69.8 °F - 68.0 °F 94% 29.92 in 10.0 mi SSW 3.5 mph - N/A   Overcast
8:54 AM 70.0 °F - 68.0 °F 93% 29.90 in 10.0 mi SW 5.8 mph - 0.00 in   Overcast
9:43 AM 71.6 °F - 69.8 °F 94% 29.92 in 10.0 mi SW 6.9 mph - N/A   Mostly Cloudy
9:54 AM 72.0 °F - 69.1 °F 91% 29.91 in 10.0 mi SW 6.9 mph - N/A   Partly Cloudy
10:01 AM 71.6 °F - 69.8 °F 94% 29.92 in 10.0 mi SW 8.1 mph - N/A   Partly Cloudy
10:54 AM 75.0 °F - 69.1 °F 82% 29.91 in 10.0 mi WSW 9.2 mph - N/A   Scattered Clouds
11:08 AM 73.4 °F - 68.0 °F 83% 29.92 in 10.0 mi SW 8.1 mph - N/A   Mostly Cloudy
11:54 AM 75.9 °F - 68.0 °F 76% 29.90 in 10.0 mi Variable 5.8 mph - N/A   Mostly Cloudy
12:03 PM 77.0 °F - 69.8 °F 78% 29.91 in 10.0 mi SW 4.6 mph - N/A   Scattered Clouds
12:23 PM 75.2 °F - 69.8 °F 83% 29.91 in 10.0 mi SSW 4.6 mph - N/A   Mostly Cloudy
12:43 PM 75.2 °F - 68.0 °F 78% 29.90 in 10.0 mi SW 5.8 mph - N/A   Scattered Clouds
12:54 PM 75.9 °F - 68.0 °F 76% 29.88 in 10.0 mi SSW 4.6 mph - N/A   Partly Cloudy
1:17 PM 77.0 °F - 68.0 °F 74% 29.90 in 10.0 mi SW 3.5 mph - N/A   Mostly Cloudy
1:54 PM 78.1 °F - 68.0 °F 71% 29.88 in 10.0 mi SW 6.9 mph - N/A   Mostly Cloudy
2:54 PM 79.0 °F - 68.0 °F 69% 29.87 in 10.0 mi Variable 3.5 mph - N/A   Partly Cloudy
3:54 PM 80.1 °F 82.7 °F 68.0 °F 67% 29.84 in 10.0 mi SE 5.8 mph - N/A   Partly Cloudy
4:54 PM 82.0 °F 84.5 °F 66.9 °F 60% 29.84 in 10.0 mi Variable 3.5 mph - N/A   Clear
5:30 PM 68.0 °F - 64.4 °F 88% 29.92 in 1.8 mi WNW 9.2 mph 21.9 mph 0.10 in Rain Heavy Rain
5:51 PM 66.2 °F - 64.4 °F 94% 29.89 in 3.0 mi ENE 4.6 mph - 0.26 in Rain Rain
5:54 PM 66.0 °F - 64.0 °F 93% 29.88 in 4.0 mi East 4.6 mph - 0.27 in Rain Rain
6:54 PM 68.0 °F - 66.0 °F 93% 29.87 in 10.0 mi Calm Calm - 0.02 in   Clear
7:54 PM 68.0 °F - 66.0 °F 93% 29.89 in 10.0 mi West 3.5 mph - N/A   Scattered Clouds
8:54 PM 68.0 °F - 66.0 °F 93% 29.89 in 10.0 mi WNW 3.5 mph - N/A   Overcast
9:41 PM 66.2 °F - 66.2 °F 100% 29.94 in 10.0 mi Calm Calm - N/A   Mostly Cloudy
9:54 PM 66.9 °F - 64.9 °F 93% 29.93 in 10.0 mi Calm Calm - N/A   Scattered Clouds
10:54 PM 66.0 °F - 64.9 °F 96% 29.94 in 10.0 mi WSW 3.5 mph - N/A   Scattered Clouds
11:54 PM 66.9 °F - 64.9 °F 93% 29.96 in 10.0 mi West 3.5 mph - N/A   Overcast